DELTA 1 DEB, 42641

Orbit data source: Space-Track

DELTA 1 DEB, 42641 is space debris in SSO originally from a launch on Thu, 12 Jun 1975 UTC launched from the Air Force Western Test Range (AFWTR). Debris objects in space refer to the collection of defunct objects orbiting the Earth. Examples of debris include non-operational satellites, rocket bodies, and fragments generated from explosions, collisions, or faulty payload assembly.

Loading next visibility...
Identifier
42641, 1975-052MA
Orbit
SSO
Country
Flag of USUS
Related business
Manufacturer
Unknown
Mission
Spacecraft
Bus & Motor
Unknown
Mass
Unknown
Launch date (UTC)
1975-06-12 (51 years ago)
Launch vehicle
Unknown
Launch site
Air Force Western Test Range (AFWTR)
Object type
Payload
Rocket body
Debris
Shape & HBR
Unknown shape, 0.1 m
Radar Cross Section
Medium (>0.1 m² and <1 m²)

Expand to show TLE details & history
Last TLE update: 3 days ago

TLE from 3 days ago
0 DELTA 1 DEB
1 42641U 75052MA  26170.49648895  .00000065  00000-0  20693-3 0  9999
2 42641  99.8010 256.9391 0061898 105.6026 275.6371 13.35673567612649
Epoch: 2026-06-19T11:54Z
TLE epoch observation values (Epoch: 2026-06-19T11:54:56.645Z)
Latitude
20.22568°
Longitude
166.84796°
Altitude
1,123.543 km
Speed
7.295 km/s
True Right ascension
16h 53m 14s
True Declination
20° 07' 11"
Sunlit
Object was in full shadow at epoch
Visualization orbit readout
Latitude
Unknown
Longitude
Unknown
Altitude
Unknown
Speed
Unknown
Apparent Right ascension
Unknown
Apparent Declination
Unknown
Sunlit
N/A
Visualization observer readout
Local Sidereal Time
21:39:45
Azimuth
Unknown
Elevation
Unknown
Doppler factor
Unknown
Orbital elements
Apogee altitude
1,169.194 km
Perigee altitude
1,076.336 km
Semi-major axis
7,500.902 km
Eccentricity
0.00619
Inclination
99.801°
RAAN
256.9391°
Arg. of periapsis
105.6026°
True anomaly
274.93071°
Mean anomaly
275.6371°
Eccentric anomaly
275.28396°
Mean motion
3.34097 °/min
Orbital period
107.75 mins
BSTAR
0.00020693
Loading maneuver chart data...
Computing Atmospheric mass density...
Loading historical data...
Loading historical data...
Loading historical data...
Loading historical data...
Loading historical data...
Loading historical data...
Loading historical data...

Documentation

Showing up to 5 results
|